GW6965 Weather Reports


time (UTC)temp
C
wind
direction
speed
KPH
gust
KPH
rain 1hr
cm
rain 24hr
cm
rain mn
cm
humidity
%
barometer
mb
20260504201619 21 278 11.3 20.9 0.00 0.00 0.00 32 1007.8
20260504201117 21 255 17.7 24.1 0.00 0.00 0.00 32 1008.0
20260504200614 20 250 11.3 16.1 0.00 0.00 0.00 32 1008.3
20260504200110 21 223 14.5 24.1 0.00 0.00 0.00 31 1008.4
20260504195607 20 259 14.5 22.5 0.00 0.00 0.00 35 1008.4
20260504195103 21 267 17.7 30.6 0.00 0.00 0.00 33 1008.4
20260504194600 21 238 4.8 25.7 0.00 0.00 0.00 33 1008.5
20260504194055 21 251 14.5 22.5 0.00 0.00 0.00 32 1008.7
20260504193552 20 239 1.6 9.7 0.00 0.00 0.00 34 1008.7
20260504193051 20 225 9.7 16.1 0.00 0.00 0.00 34 1008.8
20260504192548 20 213 11.3 22.5 0.00 0.00 0.00 33 1009.0
20260504192046 21 209 16.1 22.5 0.00 0.00 0.00 34 1009.0
20260504191544 21 283 17.7 29.0 0.00 0.00 0.00 36 1008.7
20260504191040 20 260 12.9 24.1 0.00 0.00 0.00 34 1008.8
20260504190537 20 230 6.4 17.7 0.00 0.00 0.00 35 1009.0
20260504190032 20 268 8.0 22.5 0.00 0.00 0.00 33 1009.0
20260504185530 19 265 17.7 29.0 0.00 0.00 0.00 37 1009.1
20260504185026 20 238 8.0 22.5 0.00 0.00 0.00 37 1009.1
20260504184521 20 284 16.1 29.0 0.00 0.00 0.00 36 1009.1
20260504184017 20 224 6.4 14.5 0.00 0.00 0.00 38 1009.1
20260504183515 20 226 9.7 20.9 0.00 0.00 0.00 38 1009.1
20260504183013 20 224 14.5 17.7 0.00 0.00 0.00 37 1009.2
20260504182509 20 268 17.7 20.9 0.00 0.00 0.00 39 1009.4
20260504182007 20 275 20.9 30.6 0.00 0.00 0.00 37 1009.3
20260504181503 20 227 11.3 30.6 0.00 0.00 0.00 37 1009.5
20260504181002 20 92 12.9 22.5 0.00 0.00 0.00 39 1009.5
20260504180501 20 270 11.3 29.0 0.00 0.00 0.00 39 1009.4
20260504175958 20 176 14.5 20.9 0.00 0.00 0.00 37 1009.6
20260504175455 19 170 17.7 24.1 0.00 0.00 0.00 38 1009.7
20260504174953 20 260 17.7 30.6 0.00 0.00 0.00 38 1009.8
20260504174450 20 189 9.7 20.9 0.00 0.00 0.00 39 1009.6
20260504173947 19 206 9.7 27.4 0.00 0.00 0.00 43 1009.4
20260504173443 20 237 17.7 30.6 0.00 0.00 0.00 38 1009.3
20260504172941 19 286 6.4 20.9 0.00 0.00 0.00 41 1009.5
20260504172437 19 241 16.1 22.5 0.00 0.00 0.00 41 1009.5
20260504171934 18 244 9.7 25.7 0.00 0.00 0.00 42 1009.7
20260504171431 18 258 14.5 25.7 0.00 0.00 0.00 43 1009.6
20260504170928 18 308 19.3 29.0 0.00 0.00 0.00 42 1009.6
20260504170424 18 266 12.9 24.1 0.00 0.00 0.00 41 1009.6
20260504160343 16 269 14.5 22.5 0.00 0.00 0.00 47 1010.3
20260504150808 15 261 19.3 25.7 0.00 0.00 0.00 45 1011.0
20260504150304 15 207 11.3 14.5 0.00 0.00 0.00 45 1010.9
20260504141235 14 259 4.8 6.4 0.00 0.00 0.00 48 1011.2
20260504140731 13 251 16.1 22.5 0.00 0.00 0.00 47 1011.3
20260504140226 13 270 22.5 33.8 0.00 0.00 0.00 46 1011.3
20260504130655 12 211 3.2 11.3 0.00 0.00 0.00 49 1011.7
20260504130151 11 264 3.2 12.9 0.00 0.00 0.00 52 1011.9
20260504120115 8 225 6.4 11.3 0.00 0.00 0.00 56 1012.2
20260504110543 7 203 3.2 11.3 0.00 0.00 0.00 58 1012.1
20260504100505 6 172 0.0 3.2 0.00 0.00 0.00 61 1012.0
20260504081858 5 141 0.0 0.0 0.00 0.00 0.00 66 1012.4
20260504081354 5 141 0.0 0.0 0.00 0.00 0.00 66 1012.4
20260504080850 5 169 0.0 0.0 0.00 0.00 0.00 63 1012.2
20260504080348 6 170 0.0 0.0 0.00 0.00 0.00 63 1012.2
20260504070315 6 247 0.0 4.8 0.00 0.00 0.00 60 1012.4
20260504060235 6 220 1.6 9.7 0.00 0.00 0.00 59 1012.5
20260504050703 7 245 1.6 3.2 0.00 0.00 0.00 57 1012.5
20260504050200 7 235 0.0 1.6 0.00 0.00 0.00 57 1012.6
20260504045658 6 256 3.2 3.2 0.00 0.00 0.00 58 1012.8
20260504045157 6 239 0.0 0.0 0.00 0.00 0.00 58 1012.5
20260504044655 7 213 0.0 0.0 0.00 0.00 0.00 58 1012.6
20260504044152 6 219 1.6 1.6 0.00 0.00 0.00 58 1012.8
20260504043649 7 228 0.0 0.0 0.00 0.00 0.00 59 1012.6
20260504043146 6 193 1.6 4.8 0.00 0.00 0.00 59 1012.5
20260504042644 6 176 0.0 1.6 0.00 0.00 0.00 59 1012.5
20260504042140 6 191 0.0 0.0 0.00 0.00 0.00 60 1012.4
20260504041636 6 178 0.0 1.6 0.00 0.00 0.00 59 1012.4
20260504041132 6 322 0.0 0.0 0.00 0.00 0.00 58 1012.6
20260504040630 6 310 0.0 1.6 0.00 0.00 0.00 59 1012.8
20260504040127 7 285 0.0 1.6 0.00 0.00 0.00 58 1012.4
20260504035623 7 23 0.0 1.6 0.00 0.00 0.00 58 1012.6
20260504035120 7 305 0.0 1.6 0.00 0.00 0.00 58 1012.5
20260504034618 7 280 0.0 0.0 0.00 0.00 0.00 58 1012.6
20260504034114 7 21 0.0 3.2 0.00 0.00 0.00 59 1012.5
20260504033612 7 45 0.0 1.6 0.00 0.00 0.00 59 1012.6
20260504033109 7 45 1.6 1.6 0.00 0.00 0.00 61 1012.6
20260504032606 7 22 0.0 0.0 0.00 0.00 0.00 58 1012.8
20260504032103 7 21 0.0 1.6 0.00 0.00 0.00 59 1012.8
20260504031600 7 47 0.0 0.0 0.00 0.00 0.00 60 1012.9
20260504031056 8 47 0.0 0.0 0.00 0.00 0.00 58 1013.0
20260504030553 8 47 0.0 0.0 0.00 0.00 0.00 59 1013.1
20260504030050 8 47 0.0 0.0 0.00 0.00 0.00 57 1013.0
20260504025547 8 47 1.6 1.6 0.00 0.00 0.00 55 1013.0
20260504025044 8 48 1.6 1.6 0.00 0.00 0.00 58 1012.8
20260504024541 9 47 0.0 0.0 0.00 0.00 0.00 54 1012.9
20260504024038 10 47 0.0 1.6 0.00 0.00 0.00 50 1013.0
20260504023534 10 295 1.6 1.6 0.00 0.00 0.00 49 1013.0
20260504023030 10 248 0.0 1.6 0.00 0.00 0.00 50 1012.6
20260504022526 10 212 3.2 3.2 0.00 0.00 0.00 45 1012.9
20260504022023 10 230 0.0 3.2 0.00 0.00 0.00 45 1012.8
20260504021520 10 205 1.6 1.6 0.00 0.00 0.00 47 1013.0
20260504021017 10 207 0.0 1.6 0.00 0.00 0.00 46 1013.1
20260504020514 10 226 3.2 4.8 0.00 0.00 0.00 47 1013.0
20260504020010 10 163 1.6 4.8 0.00 0.00 0.00 48 1013.0
20260504015507 10 235 1.6 3.2 0.00 0.00 0.00 45 1013.0
20260504015003 11 257 1.6 4.8 0.00 0.00 0.00 46 1013.0
20260504014459 11 303 3.2 4.8 0.00 0.00 0.00 44 1013.0
20260504013956 11 255 3.2 4.8 0.00 0.00 0.00 45 1013.0
20260504013454 11 266 8.0 16.1 0.00 0.00 0.00 43 1013.0
20260504012950 11 258 6.4 11.3 0.00 0.00 0.00 43 1012.9
20260504012448 11 221 4.8 12.9 0.00 0.00 0.00 43 1013.0
20260504011946 11 294 4.8 9.7 0.00 0.00 0.00 42 1013.0
20260504011442 11 280 3.2 4.8 0.00 0.00 0.00 42 1013.1
20260504010938 11 236 3.2 9.7 0.00 0.00 0.00 43 1012.9
20260504010434 11 270 1.6 3.2 0.00 0.00 0.00 43 1012.8
20260504005930 11 270 3.2 6.4 0.00 0.00 0.00 42 1012.5
20260504005427 11 293 4.8 9.7 0.00 0.00 0.00 41 1012.9
20260504004925 11 257 12.9 14.5 0.00 0.00 0.00 42 1012.4
20260504004422 11 257 14.5 17.7 0.00 0.00 0.00 42 1012.5
20260504003919 11 260 6.4 14.5 0.00 0.00 0.00 43 1012.6
20260504003415 11 265 6.4 11.3 0.00 0.00 0.00 43 1012.5
20260504002912 11 286 9.7 16.1 0.00 0.00 0.00 43 1012.5
20260504002409 11 253 4.8 22.5 0.00 0.00 0.00 43 1012.3
20260504001907 11 279 3.2 9.7 0.00 0.00 0.00 44 1012.3
20260504001404 11 261 4.8 6.4 0.00 0.00 0.00 43 1012.3
20260504000900 11 280 1.6 4.8 0.00 0.00 0.00 43 1012.4
20260504000357 11 266 3.2 6.4 0.00 0.00 0.00 43 1012.4
20260503235855 11 278 9.7 14.5 0.00 0.00 0.00 42 1012.4
20260503235353 11 261 3.2 9.7 0.00 0.00 0.00 42 1012.5
20260503234850 11 257 9.7 20.9 0.00 0.00 0.00 42 1012.2
20260503234348 11 266 11.3 16.1 0.00 0.00 0.00 41 1012.3
20260503233845 11 284 9.7 24.1 0.00 0.00 0.00 41 1012.1
20260503233341 11 261 6.4 12.9 0.00 0.00 0.00 41 1012.2
20260503232838 11 261 19.3 24.1 0.00 0.00 0.00 41 1012.0
20260503232335 11 266 6.4 12.9 0.00 0.00 0.00 43 1011.9
20260503231833 11 206 4.8 9.7 0.00 0.00 0.00 43 1012.1
20260503231330 11 243 4.8 12.9 0.00 0.00 0.00 43 1011.7
20260503230826 11 229 3.2 6.4 0.00 0.00 0.00 42 1011.7
20260503230323 12 227 9.7 14.5 0.00 0.00 0.00 41 1011.7
20260503225820 12 268 6.4 12.9 0.00 0.00 0.00 40 1011.9
20260503225316 12 253 4.8 11.3 0.00 0.00 0.00 40 1011.8
20260503224813 12 227 9.7 20.9 0.00 0.00 0.00 40 1011.7
20260503224310 12 239 9.7 22.5 0.00 0.00 0.00 40 1011.8
20260503223808 12 209 3.2 6.4 0.00 0.00 0.00 43 1011.7
20260503223305 12 268 6.4 9.7 0.00 0.00 0.00 40 1012.0
20260503222801 12 259 9.7 17.7 0.00 0.00 0.00 41 1011.7
20260503222259 12 252 9.7 12.9 0.00 0.00 0.00 41 1011.9
20260503221757 12 245 12.9 16.1 0.00 0.00 0.00 41 1011.9
20260503221255 11 263 17.7 25.7 0.00 0.00 0.00 41 1011.9
20260503220751 11 233 4.8 11.3 0.00 0.00 0.00 41 1012.0
20260503220248 11 286 4.8 6.4 0.00 0.00 0.00 42 1011.9
20260503215744 11 257 6.4 11.3 0.00 0.00 0.00 42 1012.1
20260503215242 11 248 9.7 17.7 0.00 0.00 0.00 40 1012.1
20260503214740 12 242 6.4 14.5 0.00 0.00 0.00 43 1011.8
20260503214236 11 248 4.8 12.9 0.00 0.00 0.00 44 1012.0
20260503213735 11 252 8.0 20.9 0.00 0.00 0.00 42 1012.0
20260503213232 12 270 16.1 22.5 0.00 0.00 0.00 42 1011.6
20260503212728 12 259 9.7 16.1 0.00 0.00 0.00 42 1012.0
20260503212226 12 238 9.7 12.9 0.00 0.00 0.00 41 1011.8
20260503211724 11 223 3.2 24.1 0.00 0.00 0.00 40 1012.0
20260503211219 11 262 12.9 16.1 0.00 0.00 0.00 42 1012.0
20260503210715 11 262 6.4 14.5 0.00 0.00 0.00 41 1011.9
20260503210213 11 300 8.0 16.1 0.00 0.00 0.00 42 1012.1
20260503205708 11 281 16.1 27.4 0.00 0.00 0.00 42 1012.1
20260503205204 11 285 12.9 20.9 0.00 0.00 0.00 42 1012.0
20260503204701 11 280 6.4 16.1 0.00 0.00 0.00 42 1012.0
20260503204159 11 288 8.0 11.3 0.00 0.00 0.00 44 1012.1
20260503203655 11 284 11.3 12.9 0.00 0.00 0.00 42 1012.1
20260503203153 11 284 9.7 17.7 0.00 0.00 0.00 43 1012.3
20260503202650 11 259 11.3 20.9 0.00 0.00 0.00 43 1012.2
20260503202148 11 297 9.7 24.1 0.00 0.00 0.00 44 1012.2